Location: Malvern Link
(52.1333°N, 2.3000°W)
Time: 14:56:20
(UTC+00:00)

SO-50 - Pass Details

Date: 10 July 2022
Orbit: 585 x 698 km, 64.6° (Epoch: 11 August)

Event Time Altitude Azimuth Distance (km) Brightness Sun altitude
Rises 21:40:43 0° 195° (SSW) 2,954 ? -8.5°
Reaches altitude 10° 21:43:06 10° 187° (S) 2,066 ? -8.7°
Maximum altitude 21:47:25 37° 121° (ESE) 1,048 ? -9.1°
Drops below altitude 10° 21:51:52 10° 55° (NE) 2,138 ? -9.4°
Sets 21:54:22 0° 47° (NE) 3,070 ? -9.7°
